Accueil
METAR-TAF:

METAR-TAF

Aéroports :

Umiujaq, Québec, Canada

latitude: 56-32N, longitude: 076-31W, altitude: 71 m

Observation

Le bulletin a été fait il y a 15 heures et 13 minutes, à 15:00 UTC
Vent 12 kt de ouest
Température 6°C
Humidité 87%
Pression 1019 hPa
Visibilité: 19.3 km
Nuages fragmentés à une hauteur de 1100 ft
brume sèche

METAR: CYMU 171500Z 27012KT 12SM HZ BKN011 06/04 A3008 RMK ST7 CIG VRB 9-13 SLP192

Heure: 02:13 (06:13 UTC)


TAF: absent

Observations et prévisions météorologiques de plus de 4000 aéroports (messages METAR et TAF).

Les stations disponibles sont représentées par des disques jaunes et rouges sur la carte.

Passer la souris dessus pour voir le nom de la station.

Cliquer dessus pour voir les observations et prévisions météorologiques.

Pour changer de carte: cliquez sur les boutons verts avec une croix noire pour zoomer, sur le bouton vert avec un tiret pour effectuer un zoom arrière, ou sur les flèches vertes pour les cartes adjacentes.


METAR-TAF: